Hourly Data Report for April 19, 2021

OTTAWA INTL A
ONTARIO
Current Station Operator: NAVCAN

45°19'00.000" N
75°40'00.000" W
114.90 m
6106001
71628
YOW

Download Data

Hourly Data (April 2021)
Hourly Data Report for April 19, 2021
TIME
LST
Temp Definition
°C
Dew Point Definition
°C
Rel Hum Definition
%
Precip. Amount Definition
mm

Wind Dir Definition
10's deg

Wind Spd Definition
km/h
Visibility Definition
km
Stn Press Definition
kPa
Hmdx Definition


Wind Chill Definition


Weather Definition


00:00 7.9 5.6 86   21 7 24.1 99.52     LegendNANA
01:00 6.9 5.4 90   24 8 24.1 99.52     Cloudy
02:00 6.5 5.5 93   19 5 24.1 99.50     LegendNANA
03:00 6.0 5.1 94   16 5 24.1 99.47     LegendNANA
04:00 5.6 4.8 95   16 9 24.1 99.50     Mostly Cloudy
05:00 3.2 2.5 95   17 5 24.1 99.50     LegendNANA
06:00 4.8 4.5 98   18 9 24.1 99.51     LegendNANA
07:00 7.5 5.8 89   20 11 24.1 99.52     Mostly Cloudy
08:00 9.0 5.4 78   19 13 24.1 99.52     LegendNANA
09:00 10.9 5.3 68   20 9 24.1 99.49     LegendNANA
10:00 12.3 5.8 64   21 10 24.1 99.47     Clear
11:00 13.7 5.7 58   18 14 24.1 99.42     LegendNANA
12:00 15.0 4.7 50   17 16 24.1 99.35     LegendNANA
13:00 15.2 2.7 43   24 10 24.1 99.30     Mostly Cloudy
14:00 17.6 1.1 33   23 18 24.1 99.26     LegendNANA
15:00 17.8 -3.7 23   22 24 24.1 99.20     LegendNANA
16:00 16.1 -2.4 28   24 14 24.1 99.22     Mostly Cloudy
17:00 16.4 -1.0 30   24 19 24.1 99.23     LegendNANA
18:00 15.3 -0.4 34   19 20 24.1 99.25     LegendNANA
19:00 13.0 0.6 42   20 18 24.1 99.28     Mainly Clear
20:00 11.9 1.1 47   19 17 24.1 99.32     LegendNANA
21:00 10.8 1.9 54   19 12 24.1 99.30     LegendNANA
22:00 10.7 1.5 53   19 15 24.1 99.28     Mostly Cloudy
23:00 11.0 0.6 48   18 17 24.1 99.23     LegendNANA

Notes on Data Quality.

Legend

  • E = Estimated
  • M = Missing
  • NA = Not Available*
  • [empty] = Indicates an unobserved value
Date modified: